FW9848 Weather Reports


Display with metric or nautical units.
time (UTC)temp
F
wind
direction
speed
MPH
gust
MPH
rain 1hr
in
rain 24hr
in
rain mn
in
humidity
%
barometer
mb
20260508161553 67 0 0.0 0.0 0.00 0.00 0.00 82 1014.3
20260508160105 66 0 0.0 0.0 0.00 0.00 0.00 83 1014.4
20260508154552 66 0 0.0 2.0 0.00 0.00 0.00 83 1014.6
20260508153048 65 0 0.0 0.0 0.00 0.00 0.00 83 1014.8
20260508151549 65 0 0.0 0.0 0.00 0.00 0.00 83 1015.1
20260508150050 65 0 0.0 4.0 0.00 0.00 0.00 83 1015.0
20260508144553 65 0 0.0 4.0 0.00 0.00 0.00 83 1015.2
20260508143057 64 265 0.0 2.0 0.00 0.00 0.00 83 1015.1
20260508141557 63 0 0.0 0.0 0.00 0.00 0.00 83 1015.2
20260508140049 63 0 0.0 0.0 0.00 0.00 0.00 83 1015.2
20260508134558 63 0 0.0 1.0 0.00 0.00 0.00 83 1015.1
20260508133050 63 0 0.0 3.0 0.00 0.00 0.00 83 1014.9
20260508131551 63 323 0.0 7.0 0.00 0.00 0.00 83 1014.6
20260508130053 62 0 0.0 0.0 0.00 0.00 0.00 83 1014.8
20260508124553 62 0 0.0 0.0 0.00 0.00 0.00 83 1015.0
20260508123104 62 0 0.0 0.0 0.00 0.00 0.00 83 1014.9
20260508121549 62 0 0.0 0.0 0.00 0.00 0.00 83 1015.1
20260508120048 63 0 0.0 0.0 0.00 0.00 0.00 83 1015.2
20260508114552 63 0 0.0 0.0 0.00 0.00 0.00 83 1015.4
20260508113105 63 0 0.0 0.0 0.00 0.00 0.00 83 1015.3
20260508111556 63 0 0.0 0.0 0.00 0.00 0.00 84 1015.2
20260508110053 63 0 0.0 0.0 0.00 0.00 0.00 83 1014.8
20260508104549 63 0 0.0 0.0 0.00 0.00 0.00 83 1015.0
20260508103052 63 0 0.0 0.0 0.00 0.00 0.00 83 1015.6
20260508101558 63 0 0.0 0.0 0.00 0.00 0.00 83 1015.5
20260508100052 62 0 0.0 0.0 0.00 0.00 0.00 83 1015.0
20260508094612 62 0 0.0 0.0 0.00 0.00 0.00 83 1015.2
20260508093058 63 0 0.0 0.0 0.00 0.00 0.00 83 1015.2
20260508091553 63 0 0.0 0.0 0.00 0.00 0.00 82 1014.4
20260508090052 64 0 0.0 0.0 0.00 0.00 0.00 81 1015.3
20260508084552 64 0 0.0 0.0 0.00 0.00 0.00 80 1015.1
20260508083050 64 0 0.0 0.0 0.00 0.00 0.00 79 1015.4
20260508081610 64 0 0.0 0.0 0.00 0.00 0.00 79 1015.4
20260508080055 64 0 0.0 0.0 0.00 0.00 0.00 78 1015.6
20260508074552 64 0 0.0 0.0 0.00 0.00 0.00 75 1015.7
20260508073055 64 0 0.0 0.0 0.00 0.00 0.00 75 1016.1
20260508071556 64 0 0.0 0.0 0.00 0.00 0.00 75 1016.1
20260508070054 65 0 0.0 0.0 0.00 0.00 0.00 72 1016.2
20260508064549 65 0 0.0 0.0 0.00 0.00 0.00 69 1016.1
20260508063103 65 0 0.0 0.0 0.00 0.00 0.00 69 1016.4
20260508061554 65 0 0.0 0.0 0.00 0.00 0.00 69 1016.0
20260508060053 65 0 0.0 0.0 0.00 0.00 0.00 69 1015.5
20260508054549 65 346 0.0 3.0 0.00 0.00 0.00 68 1015.4
20260508053051 65 0 0.0 0.0 0.00 0.00 0.00 69 1016.3
20260508051547 65 0 0.0 0.0 0.00 0.00 0.00 69 1017.4
20260508050049 65 0 0.0 0.0 0.00 0.00 0.00 68 1017.0
20260508044546 65 0 0.0 0.0 0.00 0.00 0.00 67 1017.2
20260508043051 65 0 0.0 2.0 0.00 0.00 0.00 67 1016.9
20260508041553 65 0 0.0 7.0 0.00 0.00 0.00 67 1015.2
20260508040058 66 0 0.0 3.0 0.00 0.00 0.00 66 1014.8
20260508034552 66 0 0.0 3.0 0.00 0.00 0.00 65 1015.3
20260508033047 66 0 0.0 7.0 0.00 0.00 0.00 64 1015.7
20260508031549 67 0 0.0 0.0 0.00 0.00 0.00 65 1016.0
20260508030053 67 0 0.0 0.0 0.00 0.00 0.00 64 1016.8
20260508024556 67 0 0.0 0.0 0.00 0.00 0.00 64 1016.8
20260508023051 67 0 0.0 0.0 0.00 0.00 0.00 65 1016.3
20260508021557 67 0 0.0 0.0 0.00 0.00 0.00 63 1016.2
20260508020100 67 0 0.0 0.0 0.00 0.00 0.00 63 1016.1
20260508014555 67 0 0.0 0.0 0.00 0.00 0.00 64 1015.6
20260508013059 67 0 0.0 0.0 0.00 0.00 0.00 66 1015.6
20260508011554 68 0 0.0 0.0 0.00 0.00 0.00 65 1015.5
20260508010055 68 0 0.0 3.0 0.00 0.00 0.00 64 1015.0
20260508004603 68 0 0.0 1.0 0.00 0.00 0.00 64 1013.9
20260508003105 68 0 0.0 8.0 0.00 0.00 0.00 63 1013.8
20260508001556 68 255 3.0 10.0 0.00 0.00 0.00 63 1013.8
20260507234550 69 76 3.0 10.0 0.00 0.00 0.00 62 1015.3
20260507233052 69 150 2.0 10.0 0.00 0.00 0.00 62 1015.9
20260507231554 69 240 1.0 8.0 0.00 0.00 0.00 62 1015.9
20260507230105 69 257 2.0 8.0 0.00 0.00 0.00 62 1016.1
20260507224558 70 291 1.0 6.0 0.00 0.00 0.00 62 1016.3
20260507223049 70 0 2.0 7.0 0.00 0.00 0.00 63 1016.6
20260507221553 69 252 2.0 8.0 0.00 0.00 0.00 62 1017.0
20260507220055 70 232 1.0 8.0 0.00 0.00 0.00 63 1016.9
20260507214605 68 252 2.0 8.0 0.00 0.00 0.00 67 1016.4
20260507213057 68 261 2.0 7.0 0.00 0.00 0.00 68 1017.2
20260507211600 68 217 2.0 8.0 0.00 0.00 0.00 69 1017.4
20260507204639 69 246 2.0 8.0 0.00 0.00 0.00 70 1017.5
20260507203104 68 256 3.0 12.0 0.00 0.00 0.00 70 1016.8
20260507201609 68 225 3.0 7.0 0.00 0.00 0.00 70 1017.2
20260507200106 68 323 4.0 11.0 0.00 0.00 0.00 71 1016.9
20260507194552 66 256 3.0 10.0 0.00 0.00 0.00 74 1017.2
20260507193058 66 213 3.0 10.0 0.00 0.00 0.00 74 1017.7
20260507191549 66 269 1.0 8.0 0.00 0.00 0.00 74 1017.9
20260507190057 66 0 1.0 9.0 0.00 0.00 0.00 75 1017.8
20260507184558 65 221 2.0 9.0 0.00 0.00 0.00 75 1017.1
20260507183054 65 322 2.0 9.0 0.00 0.00 0.00 76 1017.6
20260507181553 65 0 3.0 9.0 0.00 0.00 0.00 76 1018.0
20260507180051 64 346 1.0 7.0 0.00 0.00 0.00 77 1018.7
20260507174556 64 266 2.0 7.0 0.00 0.00 0.00 77 1018.9
20260507173050 65 0 1.0 8.0 0.00 0.00 0.00 76 1019.1
20260507171549 65 326 4.0 11.0 0.00 0.00 0.00 75 1018.8
20260507170059 64 257 3.0 10.0 0.00 0.00 0.00 77 1018.8
20260507164559 63 269 3.0 9.0 0.00 0.00 0.00 79 1019.1
20260507163049 62 265 2.0 13.0 0.00 0.00 0.00 80 1019.0